Location: Bryzozowice
(50.3667°N, 18.9667°E)
Time: 01:21:23
(UTC+00:00)

STARLINK-1079 - Pass Details

Date: 24 January 2020
Orbit: 348 x 351 km, 53.0° (Epoch: 28 February)

Event Time Altitude Azimuth Distance (km) Brightness Sun altitude
Rises 17:04:12 0° 278° (W) 2,178 8.1 -15.9°
Reaches altitude 10° 17:06:16 10° 284° (WNW) 1,333 6.6 -16.3°
Maximum altitude 17:09:09 47° 0° (N) 481 3.2 -16.7°
Enters shadow 17:09:30 44° 26° (NNE) 503 3.1 -16.8°
